Alapuzha, India

6:31 AM IST on August 29, 2015 (GMT +0530)
Cochin International | | Change Station
CLOSE
Current Station
Airport
Location: Cochin International Airp,
Elevation: 26 ft
Nearby Weather Stations

Elev 26 ft 10.15 °N, 76.40 °E | Updated 31 minutes ago

Haze
Haze
75 °F
Feels Like 75 °F
N
4
Wind Variable Wind from ESE

Today
High -- | Low -- °F
--% Chance of Precip.
Yesterday
High -- | Low -- °F
Precip. -- in
6:15 AM 6:35 PM
Waxing Gibbous, 99% visible
Pressure 29.80 in
Visibility 2.5 miles
Clouds Few 1500 ft
Scattered Clouds 8000 ft
Dew Point 72 °F
Humidity 89%
Rainfall 0.00 in
Snow Depth Not available.
UV 0 out of 12
Pollen Not available.
Air Quality Not available.
Flu Activity Not available.
METAR VOCI 290030Z 12003KT 4000 HZ FEW015 SCT080 24/22 Q1009 TEMPO 3000 HZ
Pressure 29.80 in
Visibility 2.5 miles
Clouds Few 1500 ft
Scattered Clouds 8000 ft
Dew Point 72 °F
Humidity 89%
Rainfall 0.00 in
Snow Depth Not available.
UV 0 out of 12
Pollen Not available.
Air Quality Not available.
Flu Activity Not available.
METAR VOCI 290030Z 12003KT 4000 HZ FEW015 SCT080 24/22 Q1009 TEMPO 3000 HZ

10-Day Weather Forecast

×

Almanac

Astronomy

Aug. 29, 2015 Rise Set
Actual Time
Civil Twilight
Nautical Twilight
Astronomical Twilight
Moon
Length of Visible Light
Length of Day
Tomorrow will be .
, % of the Moon is Illuminated

Today's Extremes

Country Highs Country Lows

Community

WunderPhotos

Upload Photos

1,850,557 photos uploaded!

WunderBlogs® & News

Nearby

Air Quality

  Air Quality AQ Index Pollutant
Not available.

Snow Depth

Station Depth Elevation

Earthquake Activity

City Distance Mag. Time & Date
Minimum magnitude displayed is 2.5.

Coastal Water Temperatures

Place Temperature

Stations

Nearby Weather Stations

Station Location Temp. Windchill Dew Point Humidity Wind Precip. Elev Updated Type